Scottsbluff, NE

9:01 PM MDT on October 22, 2019 (GMT -0600)
Heilig

Weather History for KBFF - June, 2019

Change the Weather History Date:

Wednesday, June 5, 2019

  Actual Average Record
Temperature  
Mean Temperature 66 °F -  
Max Temperature 82 °F 78 °F 98 °F (1969)
Min Temperature 50 °F 50 °F 36 °F (1970)
Cooling Degree Days 1    
Growing Degree Days 16 (Base 50)    
Moisture  
Dew Point 54 °F    
Average Humidity 68    
Maximum Humidity 97    
Minimum Humidity 33    
Precipitation  
Precipitation 0.00 in - - ()
Sea Level Pressure  
Sea Level Pressure 29.92 in    
Wind  
Wind Speed 7 mph (ENE)    
Max Wind Speed 58 mph    
Max Gust Speed -    
Visibility 10 miles    
Events      
Averages and records for this station are not official NWS values.
T = Trace of Precipitation, MM = Missing Value Source: NWS Daily Summary

Daily Weather History Graph

Daily Weather History Graph

Search for Another Location

Airport or City:

Astronomy

Jun. 05, 2019 Rise Set
Actual Time 5:20 AM MDT 8:25 PM MDT
Civil Twilight 4:46 AM MDT 8:59 PM MDT
Nautical Twilight 4:03 AM MDT 9:43 PM MDT
Astronomical Twilight 3:12 AM MDT 10:34 PM MDT
Moon 7:27 AM MDT (6/5) 10:54 PM MDT (6/5)
Length of Visible Light 16h 13m
Length of Day
15h 05m
Waxing Crescent, 7% of the Moon is Illuminated
Jun 5
Waxing Crescent
Jun 10
First Quarter
Jun 17
Full
Jun 25
Last Quarter
Jul 2
New

Hourly Weather History & Observations

Time (MDT) Temp. Heat Index Dew Point Humidity Pressure Visibility Wind Dir Wind Speed Gust Speed Precip Events Conditions
12:53 AM 53.1 °F - 51.1 °F 93% 29.92 in 10.0 mi NNW 5.8 mph - N/A   Clear
1:53 AM 51.1 °F - 50.0 °F 96% 29.93 in 10.0 mi WNW 6.9 mph - N/A   Clear
2:53 AM 50.0 °F - 48.9 °F 96% 29.92 in 10.0 mi NW 6.9 mph - N/A   Clear
3:53 AM 50.0 °F - 48.9 °F 96% 29.96 in 10.0 mi NW 6.9 mph - N/A   Clear
4:53 AM 48.9 °F - 48.0 °F 97% 29.98 in 10.0 mi NNW 4.6 mph - N/A   Clear
5:53 AM 50.0 °F - 48.0 °F 93% 30.00 in 10.0 mi NNW 3.5 mph - N/A   Clear
6:53 AM 53.1 °F - 52.0 °F 96% 29.99 in 10.0 mi Calm Calm - N/A   Clear
7:53 AM 59.0 °F - 53.1 °F 81% 29.98 in 10.0 mi Calm Calm - N/A   Clear
8:53 AM 64.9 °F - 55.9 °F 73% 29.97 in 10.0 mi WNW 4.6 mph - N/A   Clear
9:53 AM 71.1 °F - 55.0 °F 57% 29.95 in 10.0 mi Calm Calm - N/A   Clear
10:53 AM 73.9 °F - 54.0 °F 50% 29.94 in 10.0 mi Calm Calm - N/A   Clear
11:53 AM 77.0 °F - 55.0 °F 47% 29.93 in - North - - N/A   Unknown
1:53 PM 82.0 °F 82.1 °F 59.0 °F 45% 29.90 in 10.0 mi Variable 3.5 mph - N/A   Clear
2:53 PM 82.0 °F 82.0 °F 57.9 °F 44% 29.89 in 10.0 mi Calm Calm - N/A   Clear
3:53 PM 82.0 °F 82.0 °F 57.9 °F 44% 29.88 in 10.0 mi SSE 5.8 mph - N/A   Clear
4:53 PM 82.0 °F 82.0 °F 57.9 °F 44% 29.87 in 10.0 mi SSE 10.4 mph - N/A   Clear
5:53 PM 81.0 °F 81.0 °F 57.0 °F 44% 29.86 in 10.0 mi SSE 6.9 mph - N/A   Clear
6:53 PM 75.9 °F - 55.0 °F 48% 29.87 in 10.0 mi SE 10.4 mph - N/A   Clear
7:53 PM 73.0 °F - 55.0 °F 53% 29.88 in 10.0 mi SE 6.9 mph - N/A   Clear
8:53 PM 68.0 °F - 54.0 °F 61% 29.88 in 10.0 mi ESE 5.8 mph - N/A   Clear
9:53 PM 64.9 °F - 53.1 °F 65% 29.89 in 10.0 mi ESE 5.8 mph - N/A   Clear
10:53 PM 61.0 °F - 53.1 °F 75% 29.89 in 10.0 mi East 6.9 mph - N/A   Clear
11:53 PM 61.0 °F - 52.0 °F 72% 29.90 in 10.0 mi NNE 3.5 mph - N/A   Clear